[[{"header":{"parameterUnit":"m.s-1","parameterCategory":1,"la1":30.2991,"la2":30.254,"lo1":-89.0895,"lo2":-89.0444,"dy":0.0017,"dx":0.0017,"nx":28,"ny":28,"refTime":"2024-07-02T09:00:00:Z","depth":0,"parameterNumber":2,"parameterNumberName":"U-component_of_WINDS"},"data":[0,0,0,0,0,0,0,0,0,0,0,0,0,0,0,0,0,0,0,0,0,0,0,0,0,0,0,0,0,0,0,0,0,0,0,0,0,0,0,0,0,0,0,0,0,0,0,0,0,0,0,0,0,0,0,0,0,0,0.006,0.0062,0,0.0174,0.0175,0.0176,0.0231,0.0231,0.0231,0.0231,0.0346,0.0349,0.0352,0,0,0,0,0,0,0,0,0,0,0,0,0,-0.0111,-0.0108,0.006,0.0062,0.0063,0.0174,0.0175,0.0177,0.0231,0.0231,0.0231,0.0231,0.0345,0.0349,0.0352,0,0,0,0,0,0,0,0,0,0,0,0,0,-0.0021,-0.0107,0.006,0.0104,0.0109,0.0173,0.0175,0.0177,0.0231,0.0231,0.0231,0.0231,0.0344,0.0348,0.0353,0.0382,0,0,0.0367,0.0369,0,0,0,0,0,0,0,0,-0.0026,-0.0015,0.0096,0.0101,0.0107,0.0188,0.0157,0.0246,0.0231,0.0185,0.0231,0.0231,0.0294,0.0302,0.0324,0.0388,0.0393,0.0367,0.037,0.0372,0.0374,0,0,0,0,0,0,0,-0.0033,-0.002,0.0105,0.0097,0.0104,0.0117,0.013,0.0174,0.0238,0.0189,0.0193,0.0206,0.0296,0.0319,0.0327,0.0394,0.0367,0.0371,0.0374,0.0376,0.0487,0.0488,0,0,0,0,0,0,-0.0046,-0.0025,0.0102,0.0109,0.0039,0.012,0.0134,0.0162,0.0238,0.0249,0.0206,0.0208,0.0311,0.0321,0.0331,0.037,0.0372,0.0377,0.0379,0.0487,0.0488,0.0488,0,0,0,0,0,0,-0.005,-0.0035,0.0097,0.0043,0.0061,0.0123,0.0154,0.0164,0.0187,0.025,0.0262,0.0217,0.0311,0.0324,0.0369,0.0375,0.0379,0.0383,0.0487,0.0487,0.0488,0.0449,0,0,0,0,0,0,-0.0055,-0.0037,-0.0024,0.0043,0.0063,0.0134,0.0154,0.0167,0.0195,0.0199,0.0264,0.0275,0.0312,0.0362,0.0374,0.0381,0.0386,0.0487,0.0487,0.0488,0.045,0.0448,0.0446,0,0,0,0,0,-0.0061,-0.004,-0.0024,-0.0009,0.008,0.0134,0.0146,0.0189,0.0195,0.0208,0.0248,0.0273,0.0372,0.0366,0.038,0.0389,0.0487,0.0487,0.0487,0.0451,0.0448,0.0446,0,0,0,0,0,0,-0.0109,-0.003,-0.0012,0.0032,0.0076,0.0143,0.016,0.0185,0.0227,0.0229,0.028,0.0295,0.0335,0.0366,0.0358,0.0421,0.0432,0.0435,0.0399,0.0397,0.0395,0.0387,0.039,0,0,0,0,0,-0.0114,-0.0076,-0.001,0.0022,0.0043,0.0097,0.0123,0.0152,0.0199,0.0218,0.0262,0.0307,0.0348,0.0374,0.0416,0.0454,0.0469,0.0467,0.0465,0.0464,0.0466,0.0488,0.0488,0.0489,0.0489,0.0489,0,0,-0.0125,-0.0077,-0.0057,0.0013,0.0051,0.0088,0.0113,0.0151,0.0179,0.0224,0.0269,0.0302,0.0356,0.0397,0.0418,0.0425,0.0469,0.0464,0.0462,0.0466,0.0489,0.0488,0.0488,0.0489,0.0489,0.0489,0,0,-0.0125,-0.0086,-0.0054,-0.0017,0.0039,0.0076,0.0083,0.0146,0.017,0.0216,0.025,0.0284,0.0354,0.0391,0.0418,0.0431,0.0455,0.0443,0.0433,0.0454,0.0454,0.0454,0.0458,0.0459,0.0445,0.0445,0.0445,0,-0.0146,-0.0087,-0.0042,-0.0005,0.0025,0.0067,0.0098,0.0132,0.0199,0.0218,0.0225,0.0313,0.0352,0.0403,0.0406,0.0427,0.0436,0.0436,0.045,0.0451,0.0452,0.0456,0.0458,0.0443,0.0443,0.0443,0.0443,0,-0.0116,-0.0076,-0.0058,0.0006,0.0038,0.0071,0.0122,0.0148,0.0174,0.0209,0.0255,0.0303,0.0355,0.0369,0.0395,0.0423,0.0425,0.044,0.0452,0.0449,0.0454,0.0456,0.044,0.0441,0.0441,0.0442,0,0,-0.0142,-0.0053,-0.0048,-0.0018,0.0047,0.0078,0.0113,0.0165,0.0186,0.023,0.0261,0.0319,0.0333,0.0364,0.0395,0.0413,0.042,0.0426,0.0428,0.0423,0.0453,0.0442,0.0443,0.0436,0.0436,0.0437,0.0449,0,-0.0133,-0.0067,-0.0026,0.0023,0.006,0.01,0.0131,0.0174,0.0207,0.0243,0.028,0.032,0.0336,0.0355,0.0375,0.0415,0.0426,0.0414,0.0464,0.0466,0.045,0.0446,0.0434,0.0443,0.0451,0.0452,0.0452,0,-0.0114,-0.007,-0.0017,0.0043,0.0061,0.0087,0.0137,0.0171,0.022,0.0243,0.0277,0.0308,0.0346,0.0354,0.0407,0.0398,0.042,0.0443,0.0444,0.0451,0.0459,0.0453,0.0447,0.0449,0.0456,0.0455,0.0455,0,-0.0138,-0.0066,-0.0025,-0.0002,0.007,0.0088,0.0119,0.0168,0.0196,0.0239,0.0257,0.0304,0.033,0.0365,0.0407,0.0409,0.0455,0.0467,0.0475,0.0474,0.0484,0.0483,0.0482,0.0498,0.0498,0.0498,0.0498,0,-0.0133,-0.0102,-0.0035,-0.001,0.0025,0.0072,0.0105,0.0139,0.0182,0.0214,0.0251,0.028,0.0334,0.0369,0.0402,0.0441,0.0452,0.0471,0.048,0.0468,0.0466,0.0484,0.0485,0.0498,0.0498,0.0498,0.0498,0,-0.0154,-0.0108,-0.0061,0.0003,0.002,0.0043,0.0098,0.0123,0.0158,0.0198,0.021,0.0265,0.0308,0.0354,0.0412,0.0435,0.0472,0.0484,0.0455,0.046,0.0466,0.0465,0.0478,0.0482,0.0494,0.0493,0.0493,0,-0.0153,-0.0128,-0.0062,-0.0037,-0.0007,0.0031,0.006,0.0107,0.0135,0.0192,0.021,0.0257,0.0296,0.0363,0.0408,0.0453,0.0466,0.0468,0.0473,0.0461,0.0466,0.0465,0.0467,0.0466,0.0465,0.0465,0.0465,0,-0.0156,-0.0135,-0.0095,-0.0047,-0.0014,0.0026,0.0067,0.0085,0.014,0.0169,0.0214,0.0245,0.0305,0.035,0.04,0.0431,0.0457,0.0463,0.0467,0.0456,0.0438,0.0448,0.045,0.0462,0.0463,0.0463,0.0463,0.0463,-0.0166,-0.0142,-0.0092,-0.0048,-0.0013,0.0025,0.0052,0.009,0.0129,0.0182,0.0207,0.0252,0.0299,0.0369,0.04,0.0435,0.0442,0.0449,0.045,0.0451,0.0448,0.0432,0.0444,0.0444,0.0444,0.0445,0.0445,0,-0.0167,-0.0133,-0.0094,-0.0037,-0.0003,0.0018,0.0065,0.0091,0.0131,0.0173,0.0211,0.0263,0.0306,0.0354,0.0401,0.042,0.0433,0.0431,0.043,0.0436,0.0439,0.0431,0.0419,0.0419,0.0419,0.0419,0.0419,0.0419,-0.0164,-0.0123,-0.0096,-0.0037,-0.0003,0.0042,0.0066,0.0101,0.0135,0.0191,0.0228,0.0259,0.0303,0.0353,0.0394,0.0407,0.0422,0.0417,0.0433,0.0434,0.0436,0.0438,0.0431,0.042,0.042,0.0428,0.0428,0.0428]},{"header":{"parameterUnit":"m.s-1","parameterCategory":1,"la1":30.2991,"la2":30.254,"lo1":-89.0895,"lo2":-89.0444,"dy":0.0017,"dx":0.0017,"nx":28,"ny":28,"refTime":"2024-07-02T09:00:00:Z","depth":0,"parameterNumber":3,"parameterNumberName":"V-component_of_WINDS"},"data":[0,0,0,0,0,0,0,0,0,0,0,0,0,0,0,0,0,0,0,0,0,0,0,0,0,0,0,0,0,0,0,0,0,0,0,0,0,0,0,0,0,0,0,0,0,0,0,0,0,0,0,0,0,0,0,0,0,0,5.4419,5.4419,0,5.4417,5.4417,5.4417,5.4351,5.435,5.4348,5.4346,5.4344,5.4345,5.4347,0,0,0,0,0,0,0,0,0,0,0,0,0,5.4365,5.4366,5.4419,5.4419,5.4419,5.4417,5.4417,5.4417,5.4352,5.435,5.4347,5.4346,5.4343,5.4345,5.4347,0,0,0,0,0,0,0,0,0,0,0,0,0,5.4378,5.4367,5.4419,5.4386,5.4383,5.4417,5.4417,5.4417,5.4352,5.4349,5.4347,5.4345,5.4343,5.4345,5.4347,5.4413,0,0,5.4354,5.4355,0,0,0,0,0,0,0,0,5.4378,5.438,5.4391,5.4388,5.4385,5.4382,5.4397,5.4416,5.4353,5.4364,5.4346,5.4343,5.4359,5.4359,5.4365,5.4412,5.4412,5.4355,5.4356,5.4357,5.4358,0,0,0,0,0,0,0,5.4377,5.438,5.4418,5.4391,5.4388,5.4371,5.437,5.44,5.4376,5.4363,5.4358,5.4359,5.4356,5.4363,5.4364,5.4412,5.4354,5.4356,5.4358,5.4359,5.4514,5.4516,0,0,0,0,0,0,5.4381,5.438,5.4418,5.4418,5.4375,5.4374,5.4373,5.4385,5.4375,5.4371,5.4361,5.4356,5.436,5.4362,5.4364,5.4439,5.4357,5.4359,5.436,5.4511,5.4514,5.4517,0,0,0,0,0,0,5.438,5.4385,5.4418,5.4398,5.4401,5.4378,5.4392,5.4387,5.4393,5.4374,5.4369,5.4372,5.4358,5.4361,5.4401,5.4438,5.436,5.4362,5.4508,5.4512,5.4516,5.4592,0,0,0,0,0,0,5.4378,5.4385,5.4409,5.4399,5.4402,5.4456,5.4395,5.4389,5.4397,5.439,5.4383,5.4379,5.4356,5.4398,5.4403,5.444,5.4364,5.4504,5.451,5.4514,5.4586,5.4598,5.4608,0,0,0,0,0,5.4377,5.4431,5.4411,5.4416,5.4432,5.4458,5.446,5.4433,5.44,5.4425,5.4413,5.4379,5.4434,5.4403,5.4408,5.4446,5.4502,5.4508,5.4514,5.4581,5.4595,5.4608,0,0,0,0,0,0,5.4446,5.4429,5.4407,5.4459,5.4461,5.4447,5.4477,5.445,5.4461,5.4454,5.442,5.4418,5.4464,5.4459,5.4425,5.4509,5.4462,5.4469,5.451,5.4524,5.4535,5.4536,5.4366,0,0,0,0,0,5.4467,5.449,5.4473,5.4521,5.4523,5.45,5.451,5.449,5.449,5.449,5.4481,5.4482,5.45,5.4512,5.4527,5.4585,5.4582,5.4614,5.4625,5.4634,5.4641,5.4671,5.4685,5.4538,5.4537,5.4537,0,0,5.4511,5.4505,5.4521,5.4535,5.4533,5.4557,5.4501,5.4529,5.4546,5.4494,5.4532,5.4525,5.4525,5.4574,5.4596,5.4571,5.4682,5.4642,5.465,5.4651,5.4679,5.4693,5.4706,5.4542,5.4541,5.454,0,0,5.4604,5.4602,5.4641,5.4641,5.464,5.4625,5.4635,5.4625,5.4619,5.4656,5.4618,5.4638,5.4669,5.467,5.4675,5.4769,5.4738,5.4775,5.4833,5.4863,5.4875,5.4885,5.4919,5.4931,5.4781,5.4782,5.4782,0,5.4659,5.4694,5.4665,5.4695,5.4702,5.4657,5.4696,5.4698,5.4702,5.4708,5.4681,5.4719,5.4715,5.4764,5.4787,5.4793,5.4802,5.4775,5.4876,5.4886,5.4895,5.4926,5.4939,5.4786,5.4786,5.4785,5.4785,0,5.4761,5.4786,5.4818,5.4824,5.4834,5.4869,5.4845,5.4859,5.4838,5.4825,5.4864,5.4858,5.4871,5.4881,5.4861,5.4928,5.4913,5.4882,5.4833,5.4914,5.4943,5.4954,5.4792,5.4791,5.4789,5.4788,0,0,5.4897,5.4886,5.4899,5.4901,5.4897,5.4915,5.4948,5.4961,5.4974,5.4979,5.5005,5.5033,5.5003,5.5009,5.4988,5.5014,5.5089,5.4979,5.4979,5.5,5.5163,5.5187,5.5201,5.5069,5.5071,5.5073,5.5163,0,5.4987,5.5042,5.5017,5.5075,5.5098,5.5055,5.5084,5.5085,5.5074,5.5091,5.5079,5.5099,5.5059,5.5062,5.5087,5.5075,5.5121,5.5068,5.5093,5.5095,5.5095,5.5216,5.5241,5.5326,5.5174,5.5176,5.5177,0,5.5099,5.5108,5.5169,5.5161,5.517,5.5196,5.5206,5.5223,5.5223,5.5213,5.522,5.5193,5.5224,5.5177,5.522,5.5185,5.5194,5.519,5.5192,5.5193,5.5141,5.522,5.5353,5.5366,5.5195,5.5194,5.5192,0,5.5191,5.522,5.5259,5.5263,5.5255,5.5274,5.5272,5.5269,5.5279,5.5287,5.5293,5.5306,5.5313,5.5323,5.53,5.5268,5.5346,5.5297,5.5339,5.534,5.5357,5.5356,5.5493,5.5364,5.5363,5.5363,5.5363,0,5.5294,5.5333,5.5301,5.5326,5.5368,5.5339,5.5381,5.5374,5.5372,5.5395,5.5359,5.538,5.5349,5.5368,5.535,5.5388,5.5392,5.5385,5.5379,5.5388,5.5389,5.5393,5.5386,5.5366,5.5366,5.5365,5.5364,0,5.5405,5.5385,5.5426,5.5415,5.5413,5.5445,5.5435,5.5458,5.5445,5.5474,5.5479,5.5458,5.5478,5.5457,5.5475,5.5463,5.5515,5.5501,5.5515,5.5511,5.5554,5.5551,5.5698,5.5716,5.5576,5.5577,5.5578,0,5.5471,5.55,5.5493,5.5505,5.5505,5.5526,5.5535,5.5508,5.5519,5.5522,5.5544,5.5561,5.5573,5.5607,5.5594,5.5608,5.5594,5.5645,5.5596,5.5604,5.5595,5.5594,5.5596,5.5655,5.5657,5.5658,5.5659,0,5.5592,5.5581,5.5596,5.5609,5.5621,5.563,5.5635,5.5647,5.5619,5.5634,5.5654,5.5664,5.5683,5.57,5.571,5.5707,5.5679,5.5675,5.5685,5.5694,5.5701,5.5698,5.5542,5.5671,5.567,5.5669,5.5669,5.5668,5.5682,5.5706,5.5704,5.5723,5.5724,5.5731,5.5751,5.5741,5.5757,5.5771,5.5753,5.5779,5.5778,5.5789,5.579,5.5809,5.5787,5.5802,5.5806,5.581,5.5817,5.5698,5.5811,5.581,5.581,5.5809,5.5809,0,5.58,5.5798,5.5815,5.5824,5.5839,5.5811,5.5816,5.583,5.5852,5.5854,5.5867,5.5891,5.5908,5.5896,5.591,5.5928,5.5915,5.5933,5.5931,5.5931,5.5835,5.5825,5.5943,5.5943,5.5943,5.5943,5.5943,5.5943,5.5864,5.5903,5.5892,5.5931,5.5927,5.5952,5.5957,5.5962,5.5964,5.5992,5.6006,5.5998,5.5995,5.6009,5.6023,5.6019,5.6026,5.6048,5.604,5.5951,5.5937,5.5925,5.5915,5.605,5.605,5.6134,5.6134,5.6135]}]]